Home > Weather > Chico > Past weeks

Flag for U.S.A. Weather for the Past 2 Weeks in Chico, California, U.S.A.

Now
55 °F

Clear.


Feels Like: 55 °F
Forecast: 46 / 71 °F
Wind: No wind

Location: Chico Municipal

Current Time: Feb 9, 2016 at 11:28:29 PM

Latest Report: Feb 9, 2016 at 10:55 PM


Visibility: 10 mi

Pressure: 30.23 "Hg

Humidity: 67%

Dew point: 45 °F

Location of ChicoLocation

Historic Weather in Chico — Graph

°F

Chico Temperature Yesterday

Maximum temperature yesterday: 77 °F (at 2:50 PM)
Minimum temperature yesterday: 46 °F (at 3:55 AM)
Average temperature yesterday: 58 °F

High & Low Weather Summary for the Past Weeks

 TemperatureHumidityPressure
High77 °F (Feb 8, 2:50 PM)100% (Jan 25, 10:15 PM)30.52 "Hg (Jan 25, 10:15 PM)
Low36 °F (Feb 1, 2:55 AM)32% (Feb 7, 10:15 PM)29.71 "Hg (Jan 31, 1:51 PM)
Average48 °F78%30.26 "Hg
* Reported Jan 25 10:15 PM — Feb 9 10:15 PM, Chico, Weather by CustomWeather, © 2016

Note: Actual official high and low records may vary slightly from our data, if they occured in-between our weather recording intervals... More about our weather records

Advertising

Chico Weather History for the Previous 24 Hours

 ConditionsComfort  
Time TempWeatherWind HumidityBarometerVisibility
10:15 PM
Tue, Feb 9
57 °FClear.8 mph63%30.21 "Hg10 mi
9:55 PM55 °FClear.6 mph67%30.21 "Hg10 mi
9:35 PM55 °FClear.3 mph67%30.21 "Hg10 mi
9:15 PM55 °FClear.No wind72%30.21 "Hg10 mi
8:55 PM55 °FClear.No wind72%30.21 "Hg10 mi
8:35 PM57 °FClear.No wind67%30.20 "Hg10 mi
8:15 PM57 °FClear.No wind72%30.19 "Hg10 mi
7:55 PM57 °FClear.No wind72%30.19 "Hg10 mi
7:35 PM59 °FClear.No wind63%30.18 "Hg10 mi
6:55 PM63 °FClear.7 mph56%30.18 "Hg10 mi
6:35 PM63 °FClear.7 mph56%30.19 "Hg10 mi
6:15 PM64 °FClear.No wind56%30.19 "Hg10 mi
4:55 PM68 °FPartly sunny.6 mph46%30.17 "Hg40 mi
2:47 PM68 °FPartly sunny.7 mph46%30.18 "Hg40 mi
1:47 PM68 °FPartly sunny.7 mph49%30.19 "Hg40 mi
12:47 PM66 °FPartly sunny.6 mph49%30.22 "Hg40 mi
11:52 AM63 °FPartly sunny.No wind59%30.25 "Hg40 mi
10:47 AM59 °FPartly sunny.No wind68%30.29 "Hg80 mi
9:47 AM55 °FScattered clouds.9 mph72%30.29 "Hg40 mi
8:47 AM52 °FScattered clouds.No wind72%30.27 "Hg40 mi
7:47 AM45 °FPassing clouds.No wind87%30.27 "Hg40 mi
5:35 AM45 °FClear.6 mph87%30.26 "Hg10 mi
5:15 AM46 °FClear.No wind82%30.26 "Hg10 mi
4:55 AM46 °FClear.No wind82%30.25 "Hg10 mi
4:35 AM54 °FClear.No wind58%30.25 "Hg10 mi
3:55 AM55 °FClear.9 mph55%30.25 "Hg10 mi
3:35 AM55 °FClear.9 mph55%30.25 "Hg10 mi
2:35 AM54 °FClear.10 mph58%30.25 "Hg10 mi
2:15 AM54 °FClear.7 mph58%30.25 "Hg10 mi
1:35 AM54 °FClear.7 mph58%30.25 "Hg10 mi
12:55 AM54 °FClear.No wind63%30.25 "Hg10 mi
12:15 AM57 °FClear.No wind63%30.25 "Hg10 mi
11:55 PM
Mon, Feb 8
59 °FClear.3 mph63%30.25 "Hg10 mi
11:35 PM59 °FClear.No wind68%30.24 "Hg10 mi
11:15 PM59 °FClear.No wind63%30.24 "Hg10 mi
Weather by CustomWeather, © 2016

See weather overviewHow to use our weather pages